Regional Weather Roundup
Issued by NWS Spokane, WA

Home | Current Version | Previous Version | Text Only | Print | Product List | Glossary On
Versions: 1 2 3 4 5 6 7 8 9 10 11 12 13 14 15 16 17 18 19 20 21 22 23 24 25 26 27 28 29 30 31 32 33 34 35 36 37 38 39 40 41 42 43 44 45 46 47 48 49 50
169
NZUS01 KOTX 010210
RWROTX
EASTERN WASHINGTON/NORTHERN IDAHO ROUNDUP
NATIONAL WEATHER SERVICE, SPOKANE WA
700 PM PDT SAT APR 30 2016

Note: "fair" indicated few or no clouds below 12,000 feet with no
significant weather and/or obstructions to visibility.

...NORTHEAST WASHINGTON AND NORTHERN IDAHO PANHANDLE...

CITY           SKY/WX    TMP DP  RH WIND       PRES   REMARKS
SPOKANE INTL   MOCLDY    59  41  51 SE8       30.24R
SPOKANE DOWNTO MOCLDY    57  47  69 VRB3      30.25R
COEUR D ALENE  CLOUDY    55  46  71 NW5       30.21S
DEER PARK      PTCLDY    58  45  62 NW6       30.24R
SANDPOINT      PTCLDY    63  36  36 N6        30.22S

...SOUTHEAST WASHINGTON AND SOUTHERN IDAHO PANHANDLE...

CITY           SKY/WX    TMP DP  RH WIND       PRES   REMARKS
WALLA WALLA    CLEAR     63  46  54 NE8       30.19F
PULLMAN/MOSCOW PTCLDY    51  43  74 NW3       30.23F
LEWISTON       CLEAR     62  45  53 W3        30.20S
LOWELL           N/A     58  46  64 CALM      30.18R

...COLUMBIA BASIN...

CITY           SKY/WX    TMP DP  RH WIND       PRES   REMARKS
EPHRATA        SUNNY     67  44  43 E9        30.20S
MOSES LAKE     MOSUNNY   69  42  37 E8        30.21S
TRI CITIES     CLEAR     70  43  37 NE8       30.19S
HERMISTON      CLEAR     68  43  40 NE12      30.17S
PENDLETON      PTCLDY    63  42  46 NE10      30.18F

...EAST SLOPES CASCADES...

CITY           SKY/WX    TMP DP  RH WIND       PRES   REMARKS
THE DALLES     MOSUNNY   71  45  39 NW12      30.16F
YAKIMA         MOSUNNY   73  31  21 E9        30.19R
ELLENSBURG     SUNNY     67  41  38 NW14      30.20S
STAMPEDE PASS  SUNNY     49  38  65 VRB6      30.29F
WENATCHEE      SUNNY     72  24  16 S5        30.19S
OMAK           SUNNY     69  32  25 N8        30.20S

...SOUTHERN BRITISH COLUMBIA...

CITY           SKY/WX    TMP DP  RH WIND       PRES   REMARKS
PENTICTON      SUNNY     66  39  37 N7        30.22S
CRANBROOK      MOCLDY    59  34  38 W5        30.26R

...WESTERN MONTANA...

CITY           SKY/WX    TMP DP  RH WIND       PRES   REMARKS
MISSOULA       CLOUDY    51  43  74 CALM      30.25R

...NEIGHBORING CITIES...

CITY           SKY/WX    TMP DP  RH WIND       PRES   REMARKS
SEATTLE        MOSUNNY   66  40  38 N8        30.30F
CALGARY        PTCLDY    54  28  37 S3        30.28S



USA.gov is the U.S. government's official web portal to all federal, state and local government web resources and services.